Location: Baumgartsau
(48.4586°N, 14.0864°E)
Time: 22:58:55
(UTC+00:00)

Cosmos 2151 - Pass Details

Date: 09 April 2020
Orbit: 582 x 600 km, 82.5° (Epoch: 03 June)

Event Time Altitude Azimuth Distance (km) Brightness Sun altitude
Rises 19:24:28 0° 0° (N) 2,819 6.9 -15.8°
Reaches altitude 10° 19:27:01 10° 15° (NNE) 1,914 5.8 -16.1°
Maximum altitude 19:30:29 24° 70° (ENE) 1,229 4.3 -16.6°
Enters shadow 19:30:58 24° 81° (E) 1,245 4.2 -16.7°
